Dean International
Flight School

Career Spotlight

Mika

Mika

Congratulations to Mika from Khazakstan. She recently sent us this photo of her flying an Airbus airliner.

More...
Mika's Success Story
close

Congratulations to Mika from Khazakstan. She recently sent us this photo of her flying an Airbus airliner.

Mario

Mario

My dreams could not have been realized if I wouldn't have been part of the Dean International family.

More...
Mario's Success Story
close

"My dreams could not have been realized if I wouldn't have been part of the Dean International family. Thank you Robert, thanks to all my co-workers, and thanks to all of my students!"

Fernando

Fernando

I am now working as a First Officer at TACA and am enjoying every moment of it.

More...
Fernando's Success Story
close

"Will never forget my time of flight training at Dean International. I am now working as a First Officer at TACA and am enjoying every moment of it."

Alvaro

Alvaro

Because of the flight time I was able to built while instructing, I got the experience needed to apply to an airline in Colombia.

More...
Alvaro's Success Story
close

Dean alumnus Alvaro Londoño currently flies with Tampa Cargo. He says of his experience at Dean: "I want to take this opportunity to thank you for giving me the chance to build my experience and expand my knowledge in Dean International. Because of the flight time I was able to built flight instructing, I got the experience needed to apply to an airline in Colombia."

Ralph

Ralph

Every Aruban student of Dean International has made it into Tiara Air Aruba, that is very nice.

More...
Ralph's Success Story
close

"Next to me is my Co-Pilot, Elison. This picture was taken on our first flight together, which was almost exactly 5 years after I finished at Dean International. [...] Every Aruban student of Dean International has made it into Tiara Air Aruba. [...] The future looks bright here in Aruba."

Rohaan

Rohaan

The [..] staff will all work diligently to help you finish your certificates as safely and efficiently as possible.

More...
Rohaan's Success Story
close

After receiving very hard times from other flight schools [...], I came to Dean International where Robert Dean personally sat down with me and gave me a financial and chronological look into how much remained to finish my private pilot certificate. Through his hard efforts as an instructor and mentor, I was able to finish my private pilot certificate within one week.

Welcome to Dean International

In over two decades, Dean International has educated over 7,000 pilots from all over the world, including over 1,000 students from India alone. By offering a great training experience, a friendly service staff, an ample variety of aircraft, and by improving constantly, we have become one of the largest, most prestigious FAA 141-approved flight schools in North America. Located in Miami, Florida, USA, our flight school offers an ideal location for year-round, "learn to fly" weather, flight training. Dean International is not only well-equipped to provide services to professional trainees but also caters to General Aviation renters. Visit or contact our headquarters at Kendall-Tamiami Executive Airport located in Miami, FL today to learn more about us, or simply read more about our programs if you are an international student interested in joining our school.

Local Airport Information
TAF FOR KTMB (Issued: Thu, September 18th 2014 9:06 AM UTC)
TAF
      AMD KTMB 180905Z 1809/1906 VRB04KT P6SM SCT100 BKN250
      FM181300 31006KT P6SM FEW035 SCT250
      FM181800 26006KT P6SM VCTS SCT035CB SCT150
      FM190100 VRB03KT P6SM FEW035 SCT250
     
METAR FOR KTMB (Issued: Thu, September 18th 2014 10:53 AM UTC):
KTMB 181053Z 00000KT 10SM CLR 25/22 A2991 RMK AO2 SLP129 T02500222

This weather information is provided by the National Weather Service.
It is automatically refreshed every three minutes.
TAF FOR KHST (Issued: Thu, September 18th 2014 8:14 AM UTC)
TAF KHST 1808/1914 VRB06KT 9999 SCT030 BKN100 QNH2987INS
      BECMG 1817/1818 23009KT 9999 VCSH BKN040 QNH2989INS
      TEMPO 1818/1824 VRB10G20KT 4800 -TSRA BKN030CB
      BECMG 1900/1901 VRB06KT 9999 NSW SCT040 QNH2990INS TX31/1821Z TN21/1812Z
     
METAR FOR KHST (Issued: Thu, September 18th 2014 10:58 AM UTC):
KHST 181058Z AUTO 00000KT 10SM CLR 24/23 A2991 RMK AO2 SLP132 T02360228

This weather information is provided by the National Weather Service.
It is automatically refreshed every three minutes.
TAF FOR KOPF (Issued: Thu, September 18th 2014 9:06 AM UTC)
TAF
      AMD KOPF 180904Z 1809/1906 20005KT P6SM SCT150
      FM181300 31006KT P6SM FEW035 SCT250
      FM181900 16008KT P6SM VCTS SCT035CB SCT150
      FM190200 VRB04KT P6SM FEW035 SCT250
     
METAR FOR KOPF (Issued: Thu, September 18th 2014 10:53 AM UTC):
KOPF 181053Z 00000KT 10SM CLR 25/22 A2991 RMK AO2 SLP130 T02500217

This weather information is provided by the National Weather Service.
It is automatically refreshed every three minutes.
TAF FOR KMIA (Issued: Thu, September 18th 2014 9:09 AM UTC)
TAF
      AMD KMIA 180905Z 1809/1906 19005KT P6SM SCT150 BKN250
      FM181300 31005KT P6SM FEW035 SCT250
      FM181900 17008KT P6SM VCTS SCT035CB SCT150
      FM190100 13005KT P6SM FEW035 SCT250
     
METAR FOR KMIA (Issued: Thu, September 18th 2014 10:53 AM UTC):
KMIA 181053Z 22003KT 10SM FEW080 BKN150 OVC250 26/22 A2991 RMK AO2 SLP130 T02560217 $

This weather information is provided by the National Weather Service.
It is automatically refreshed every three minutes.
Design by Ariel Llizo
© Dean International Inc. 2012